Theta_e
345 347 348 351 350 351 352 352 352 352 352 352 351 351 351 351 351 351 351 351 351 351 351 351 350 350 350 350 349 349 349 349 347 347 349 350 350 349 349 349 349 347 347 348 347 347 347 345 344 344 345 346 344 344 344 344 345 345 346 346 346 346 346 346 344 345 346 345 344 343 343 344 342 341 344 343 343 342 341 342 343 341 339 340 342
343 348 348 349 350 350 351 351 351 351 351 351 351 351 351 351 350 350 351 351 350 351 350 350 350 349 349 349 349 348 348 348 347 346 347 349 349 349 349 349 349 347 347 347 347 346 346 345 345 345 344 344 345 345 344 344 344 344 344 345 345 345 346 345 344 346 345 345 344 343 339 343 342 340 341 341 342 342 342 343 344 339 338 340 341
347 347 348 349 350 350 350 351 351 350 351 351 351 351 351 350 350 350 350 351 351 350 350 350 349 349 349 350 349 349 348 347 346 345 346 349 350 350 349 348 349 349 348 348 346 346 345 345 345 344 345 345 345 345 345 345 345 346 345 345 344 345 345 346 345 346 345 346 346 346 345 343 343 340 340 340 341 342 343 344 344 345 341 343 343
344 346 349 349 350 350 350 351 351 351 351 351 351 351 351 351 350 351 350 350 350 350 350 350 349 349 349 349 349 349 348 347 345 345 346 349 349 349 349 349 348 349 349 349 348 347 347 346 346 345 345 344 344 345 346 346 346 346 347 346 346 346 346 346 347 347 347 346 347 347 345 347 341 339 341 340 342 344 343 343 345 344 344 343 344
344 347 350 350 349 349 350 350 351 350 350 351 351 350 350 350 350 350 350 350 350 349 349 349 349 349 349 348 348 348 348 346 345 343 345 347 348 349 349 348 348 349 349 349 349 348 348 348 345 345 345 346 344 346 346 346 347 347 347 348 347 347 347 347 347 348 349 349 349 346 344 343 341 339 342 341 344 344 343 343 342 343 343 343 343
345 347 350 350 349 348 349 349 350 351 350 350 350 350 349 349 350 350 350 350 349 349 349 349 349 349 349 348 348 348 347 347 345 345 345 346 348 348 347 347 348 348 349 349 348 347 346 347 347 345 345 345 345 347 346 346 346 347 347 347 347 347 348 348 348 349 350 350 347 340 344 342 341 340 341 343 344 345 344 343 342 343 343 343 343
346 347 349 349 347 347 348 349 349 350 350 349 349 349 349 349 349 349 349 349 349 348 349 349 349 348 348 348 348 348 348 348 348 347 347 347 347 347 347 348 347 348 347 348 348 347 346 346 346 347 346 345 345 345 346 346 347 347 347 347 346 347 348 348 348 349 349 348 341 342 344 341 343 343 343 343 345 345 344 345 344 344 343 343 343
346 347 348 347 347 348 348 348 348 349 349 349 349 349 349 348 348 348 349 348 348 348 348 348 348 348 348 348 348 348 347 348 347 347 346 346 347 347 347 347 347 347 347 347 348 347 345 345 346 346 345 345 345 345 345 346 347 346 347 348 347 347 348 348 348 349 350 344 341 340 337 341 342 344 344 345 346 346 345 344 343 343 344 343 343
344 345 346 346 346 348 348 348 348 348 348 348 349 348 348 348 348 348 348 348 348 348 348 348 348 348 347 347 346 347 347 346 346 346 347 346 346 345 346 347 347 347 347 346 347 346 346 347 345 345 345 345 345 345 346 346 346 346 346 347 347 347 348 348 348 349 345 341 340 341 341 341 341 341 343 344 346 346 345 344 343 343 343 344 343
344 344 345 345 346 348 347 347 348 348 347 348 348 348 347 348 348 347 348 347 347 348 347 347 347 347 346 346 346 346 346 346 346 346 346 346 346 346 345 346 346 346 346 346 346 346 345 345 345 344 344 345 345 345 346 346 346 346 346 346 347 347 347 347 348 347 340 341 341 340 341 343 343 341 344 345 345 345 343 344 344 344 343 344 344
343 344 345 345 346 347 347 346 347 348 348 348 348 348 347 347 347 347 347 347 347 347 347 347 347 346 346 346 346 345 345 345 345 346 346 346 346 346 345 345 345 345 345 345 345 345 345 344 344 343 343 342 344 345 345 346 345 345 345 346 346 346 346 347 348 340 337 339 340 341 344 344 341 342 345 346 346 345 345 344 344 343 343 343 343
343 342 345 345 347 346 346 347 347 347 348 347 347 347 347 347 346 347 347 348 346 347 346 346 346 345 345 345 345 345 345 345 345 345 345 345 345 345 344 344 344 344 344 344 343 343 344 344 344 344 342 342 343 344 345 345 346 345 345 346 346 346 346 347 344 337 341 342 342 341 339 341 342 345 346 347 346 345 344 344 343 343 342 343 342
341 344 343 346 347 347 347 346 346 347 347 347 347 347 347 347 346 347 347 347 347 346 346 346 346 346 345 345 345 345 345 344 344 345 345 344 344 344 344 344 344 344 344 344 343 343 342 342 340 343 344 343 344 344 344 345 345 345 346 345 346 346 346 347 340 336 339 341 340 341 340 343 345 346 347 346 346 345 345 344 343 343 343 342 342
341 342 344 344 345 348 347 346 346 347 347 346 346 346 347 347 347 347 346 346 346 345 345 345 345 345 345 344 344 344 344 344 344 344 344 344 344 344 344 344 343 344 344 344 344 344 343 342 342 341 340 343 343 344 344 344 345 345 345 346 345 345 346 343 339 335 339 340 341 343 342 344 343 345 344 345 346 344 344 343 343 343 342 342 342
340 342 344 345 344 346 348 347 347 347 347 347 347 347 346 346 346 347 347 346 346 346 345 345 344 344 344 344 344 344 345 345 344 344 344 343 343 343 343 344 344 344 344 344 344 344 344 343 342 342 341 341 342 342 343 343 344 345 344 344 345 345 346 342 336 337 339 340 341 345 346 345 343 345 343 343 344 345 343 343 344 344 343 341 341
341 341 343 342 344 344 345 348 347 347 347 347 347 346 346 346 346 346 346 346 345 345 346 345 345 344 345 345 345 345 344 344 344 343 344 344 344 344 345 345 346 346 346 346 345 345 345 345 343 342 341 342 343 342 342 344 343 343 344 344 345 346 347 342 339 338 338 339 341 342 342 344 345 345 344 344 344 345 344 344 344 344 343 344 344
341 341 342 342 343 343 345 346 346 347 347 347 347 347 346 346 346 346 345 346 346 345 345 345 345 346 345 345 344 345 344 344 344 344 344 345 346 346 347 347 346 346 346 346 347 346 346 346 345 345 342 342 344 345 343 342 343 344 344 345 346 346 344 342 339 340 342 341 338 339 339 344 346 345 344 345 344 344 344 344 344 342 342 343 343
340 340 340 342 343 343 344 345 346 345 346 346 346 346 347 347 347 347 346 346 347 346 346 346 345 345 345 345 344 344 343 344 345 345 345 345 345 344 343 344 344 343 344 344 344 345 345 346 347 346 346 346 344 344 345 345 345 345 346 347 345 346 340 340 340 340 342 340 341 345 343 340 343 343 344 344 344 344 344 344 344 343 342 342 343
338 338 340 341 338 341 344 344 344 345 344 346 346 347 347 348 348 347 346 345 346 347 346 346 346 345 345 346 344 345 344 344 345 345 345 343 342 341 341 341 341 341 341 341 342 342 341 342 344 345 346 347 348 347 347 347 347 346 347 348 348 344 342 340 339 340 341 339 340 341 340 342 343 342 344 344 344 344 344 344 344 343 343 343 342
342 341 337 338 339 338 342 342 342 343 344 346 346 346 346 347 346 346 346 346 345 345 346 346 345 344 345 343 343 345 343 343 344 343 343 342 341 339 339 340 340 340 341 341 341 341 342 342 343 345 344 345 346 348 348 348 348 348 347 347 348 345 342 341 339 339 339 341 343 341 343 342 343 342 343 343 345 345 345 343 343 343 343 342 342
341 341 341 337 336 339 338 342 341 342 342 342 346 345 344 346 344 344 345 347 344 346 345 344 344 344 343 342 344 345 346 347 342 341 341 342 340 339 340 339 340 341 342 343 342 342 342 344 344 345 346 343 343 345 346 347 347 346 348 347 347 343 341 340 340 342 340 339 341 341 343 344 344 343 343 344 344 344 344 343 342 343 343 342 342
335 338 339 340 338 338 338 342 342 341 341 341 343 344 345 343 343 345 343 342 342 344 343 343 344 343 342 345 344 344 344 345 345 341 342 342 341 338 340 339 339 340 339 340 343 344 344 345 346 345 346 347 347 340 341 346 348 348 347 348 341 342 336 339 339 340 339 338 340 341 343 345 345 344 344 345 344 344 344 343 342 342 343 342 342
334 336 339 341 341 340 343 340 338 339 339 341 342 345 342 346 343 342 345 343 344 342 343 345 341 340 340 342 344 345 343 343 344 341 341 338 340 342 340 340 341 341 339 342 344 345 348 347 346 347 346 348 346 342 338 336 340 348 350 348 343 341 337 336 338 337 338 338 338 342 344 343 345 346 345 345 344 344 344 343 341 341 342 343 342
334 336 337 339 341 339 341 341 341 341 340 341 343 346 342 347 344 343 346 344 345 343 342 341 340 342 342 344 347 341 344 347 339 339 337 340 343 343 341 340 341 342 336 338 339 350 348 347 347 347 343 343 338 334 334 336 334 339 341 340 339 334 333 334 337 338 337 339 341 344 345 345 346 346 346 345 345 344 344 342 341 340 342 341 340
336 335 337 339 339 338 341 342 342 343 340 346 341 342 345 341 339 339 337 341 338 338 337 336 338 338 338 347 341 344 341 343 338 338 338 338 335 332 339 332 330 330 332 329 326 328 329 328 326 337 332 327 332 338 333 335 340 332 335 341 337 335 333 333 337 335 336 339 341 344 344 343 344 345 345 345 344 344 343 343 341 341 341 341 341
336 334 335 338 339 340 342 340 340 341 345 340 342 337 337 334 333 334 334 335 337 339 337 336 336 337 335 334 338 338 338 340 341 339 335 335 330 327 328 328 326 326 329 325 325 324 324 324 323 322 322 322 323 326 328 330 325 325 328 325 331 329 328 325 333 336 337 339 341 343 344 343 342 343 343 343 344 343 343 342 342 342 341 340 340
334 334 336 338 340 342 341 342 341 342 340 340 339 335 336 336 334 331 329 330 332 331 332 336 334 334 333 334 333 332 332 332 330 333 330 329 328 327 326 326 326 324 326 323 324 323 324 323 322 322 320 319 320 319 323 322 323 323 324 323 327 324 326 321 330 336 337 337 341 343 342 341 343 342 343 344 344 343 342 342 341 341 340 340 340
334 334 337 337 339 339 339 339 342 340 339 335 335 331 331 330 331 332 330 331 331 329 333 332 334 330 331 330 332 330 329 327 327 329 327 328 328 328 326 326 324 323 326 325 322 323 323 322 323 319 319 318 317 318 319 319 322 322 323 325 321 322 331 321 330 330 336 337 338 341 340 339 339 340 342 344 344 343 343 342 341 342 342 341 342
333 334 336 338 339 340 340 339 337 337 337 334 330 329 332 331 329 328 327 331 331 332 332 330 328 329 329 328 329 329 327 326 326 327 327 327 327 327 326 325 325 323 325 325 324 325 322 321 323 320 318 318 317 319 320 319 318 318 320 321 321 322 325 327 324 324 333 331 333 338 339 337 336 337 337 339 341 342 342 341 341 341 340 340 340
333 334 334 336 335 339 334 335 336 335 337 334 332 330 330 329 329 328 329 330 328 334 331 330 327 326 327 329 329 328 330 326 327 328 326 326 326 327 325 325 325 325 326 323 325 324 322 322 322 321 319 320 319 321 319 318 318 318 320 319 321 320 319 324 317 322 330 331 333 336 338 336 335 333 333 335 337 338 339 340 341 341 341 341 341
334 335 334 334 335 333 332 332 334 337 337 334 333 333 334 330 327 326 328 329 330 330 329 331 327 326 327 330 329 329 331 329 328 330 327 325 326 326 324 326 325 325 325 324 324 324 323 321 321 322 321 321 322 322 321 321 319 320 321 321 318 321 318 323 320 318 321 326 331 334 336 336 333 333 333 332 332 333 333 333 335 336 336 337 337
331 332 332 333 333 333 333 332 336 337 335 332 330 329 331 328 327 325 328 330 332 329 327 328 328 325 327 329 330 330 330 331 330 329 326 324 325 325 325 325 325 324 324 327 323 324 323 322 324 322 323 323 323 321 324 321 322 321 320 320 321 322 318 320 318 318 319 323 326 329 332 333 333 332 332 332 331 329 330 330 329 330 331 332 333
331 333 333 333 333 333 333 334 334 333 331 329 330 327 328 326 326 326 329 329 329 328 327 327 329 326 326 328 328 328 329 328 331 330 326 324 325 325 324 324 323 324 324 326 324 324 324 322 323 323 322 320 321 323 325 323 322 321 322 321 323 320 321 320 320 321 319 323 319 324 326 330 328 333 332 330 330 330 330 328 328 327 328 329 330
329 330 333 332 333 333 333 334 335 332 332 331 331 328 329 326 326 327 328 332 328 327 326 327 328 325 325 327 327 327 327 330 328 329 327 325 325 324 324 324 324 325 324 324 323 323 323 322 322 321 324 320 316 319 320 321 325 325 325 324 322 320 320 319 319 317 322 320 324 323 320 323 328 327 328 331 330 330 329 329 326 325 325 326 327
330 329 329 330 333 332 333 331 331 330 329 328 327 327 327 325 325 325 324 329 326 326 326 326 324 325 324 325 327 328 327 326 328 330 327 325 323 323 323 323 327 327 324 325 322 322 323 322 322 320 321 321 317 318 317 319 320 322 328 329 325 320 321 320 318 318 317 321 322 322 326 326 323 323 324 328 328 330 330 328 328 325 324 324 324
330 329 330 331 329 331 333 331 331 331 330 330 329 331 330 328 327 325 325 327 327 323 324 324 323 323 324 324 325 326 326 327 325 327 328 325 323 324 325 326 326 326 328 325 323 321 321 322 324 321 319 318 319 319 316 317 319 319 321 328 326 324 322 322 319 317 316 320 319 323 320 324 326 326 328 329 326 329 331 331 329 328 324 324 323
331 331 330 330 329 330 332 330 329 329 330 328 328 330 329 329 331 326 322 325 324 323 322 323 324 324 324 323 325 326 325 327 327 327 327 324 325 325 327 327 325 325 325 325 322 323 323 322 321 323 320 317 317 315 317 317 317 319 320 319 321 325 324 326 323 319 319 322 318 319 320 318 325 326 332 321 321 327 332 332 330 330 328 327 323
330 331 332 329 328 329 329 330 330 328 331 332 330 332 331 326 324 326 326 322 322 323 323 323 322 322 322 323 324 325 325 324 326 328 329 324 322 322 324 326 326 327 327 325 324 323 325 323 318 322 319 318 316 316 316 317 316 317 317 317 320 322 325 326 323 326 318 319 320 320 320 318 323 320 323 323 322 326 325 327 333 333 328 326 328
328 330 330 331 328 328 329 331 331 332 333 332 332 331 334 329 325 324 322 322 322 322 322 322 324 323 322 322 326 329 326 327 328 327 326 323 323 324 324 325 325 326 326 323 322 323 325 321 319 319 321 317 316 317 317 317 314 317 314 316 318 317 320 325 321 317 323 316 317 321 316 320 320 317 323 321 326 323 322 321 319 323 324 329 327
327 328 327 328 328 328 328 331 331 333 333 336 331 330 323 328 324 323 321 320 319 320 322 321 324 323 321 323 322 324 324 325 323 324 325 325 326 326 326 324 324 323 324 322 321 321 321 319 320 318 318 317 316 316 313 311 313 315 314 317 317 318 316 320 319 315 315 315 315 322 318 316 316 317 321 322 321 320 318 320 327 320 323 328 328
326 327 325 325 326 325 327 327 330 330 328 326 326 322 326 322 321 322 323 324 321 321 322 323 324 326 323 321 325 326 323 324 323 324 325 327 327 327 326 324 324 324 323 321 321 323 321 319 319 317 316 314 312 315 311 311 314 310 313 314 316 316 318 315 314 312 313 315 316 316 317 317 318 319 319 322 321 319 323 320 316 320 317 317 319
324 324 325 325 326 326 327 327 330 330 329 327 323 325 323 321 321 317 317 319 319 318 320 328 327 322 326 328 334 332 330 325 325 325 325 324 324 323 325 324 325 324 325 322 322 326 319 316 316 313 315 313 311 315 314 311 311 308 307 308 311 312 319 314 312 311 312 315 312 312 312 311 313 313 316 318 317 313 312 315 314 316 315 311 310
321 322 322 325 326 326 326 326 330 326 324 326 325 325 327 326 325 323 317 318 323 325 324 324 322 320 325 326 323 323 321 320 322 324 321 324 326 325 324 329 324 325 323 322 320 320 317 314 314 313 313 312 313 314 315 312 308 309 308 307 305 305 310 310 310 309 311 310 310 310 310 309 309 310 309 308 307 309 311 311 313 316 311 309 308
321 320 322 324 323 325 326 327 327 326 325 324 325 327 327 327 326 327 330 325 321 323 325 323 323 323 322 327 328 328 323 320 320 320 321 324 326 323 323 326 325 324 323 321 319 316 315 313 313 313 314 310 310 311 314 312 308 309 301 303 304 305 301 302 303 306 309 306 307 307 307 307 306 305 305 303 304 309 306 307 312 313 309 307 306
319 319 321 321 320 322 325 326 326 326 325 326 328 330 329 328 330 328 326 326 329 328 319 319 323 325 328 325 322 323 324 322 324 321 321 322 327 325 323 321 328 325 323 321 318 315 314 313 313 312 312 311 309 310 311 309 306 313 304 303 301 300 298 300 299 304 304 304 304 304 306 305 303 304 303 303 305 303 305 306 311 307 305 306 311
319 319 319 320 322 322 322 325 326 327 327 328 330 330 328 330 326 328 319 318 319 323 324 323 319 319 319 328 325 323 322 323 322 322 321 323 324 326 323 321 323 326 323 321 318 316 314 313 313 312 310 312 310 308 306 308 306 309 305 307 305 301 299 300 298 294 302 304 302 303 303 303 303 302 303 303 302 302 305 304 304 303 304 308 305
318 319 319 322 321 321 323 324 326 327 326 328 329 331 329 324 321 319 319 319 320 321 327 329 327 322 329 327 326 328 322 323 324 323 323 322 324 325 323 322 321 321 323 320 318 315 313 312 314 312 309 310 308 306 305 302 305 305 303 304 305 306 301 298 296 297 294 299 302 302 301 302 302 302 303 302 302 303 304 305 303 303 305 304 306
320 318 321 322 323 322 323 324 326 327 326 326 325 327 322 322 321 320 321 319 321 321 322 325 329 329 328 329 327 325 324 325 325 324 322 322 324 324 323 322 320 318 318 314 315 315 315 314 314 312 310 310 307 306 304 303 301 302 304 304 304 304 301 302 300 296 295 293 296 300 301 301 302 303 303 302 302 303 302 304 304 303 303 304 306
319 321 320 322 323 323 324 324 325 327 330 327 323 323 326 325 324 322 321 321 321 323 325 325 327 329 327 328 326 329 327 328 326 325 324 324 324 322 321 319 318 317 316 313 313 312 314 312 311 309 307 308 308 308 305 303 303 301 301 302 303 302 299 300 301 299 297 294 294 295 296 300 301 301 302 303 303 303 303 304 307 306 308 306 304
322 324 323 322 323 324 324 324 324 326 325 326 326 324 324 326 324 326 323 323 323 323 322 325 325 328 324 326 325 326 330 327 328 327 327 324 323 322 318 317 317 316 315 313 312 309 313 308 308 309 308 307 309 307 305 305 304 305 302 303 302 303 299 299 298 298 298 298 294 294 296 296 295 298 302 301 302 303 303 303 302 303 303 302 303
322 323 323 320 323 324 324 324 325 325 326 325 325 325 325 325 323 323 323 321 320 323 323 324 327 326 325 323 327 331 329 325 329 330 326 323 323 322 320 316 316 317 314 312 310 306 309 308 307 308 306 306 306 307 305 306 305 305 303 303 302 301 298 297 297 299 298 296 296 296 297 298 296 296 299 301 303 302 302 301 302 302 301 301 302
Wind_Speed
5 8 8 10 11 12 12 13 12 12 12 12 12 12 12 12 12 12 12 12 13 13 12 13 13 13 13 12 11 13 11 10 10 11 10 8 8 8 7 7 8 8 8 9 8 8 8 8 8 8 8 8 8 8 7 6 6 5 6 6 7 7 7 6 6 5 5 4 2 2 2 2 2 4 4 4 4 5 4 4 7 4 5 6 9
2 7 6 7 10 11 12 12 12 12 12 13 13 12 13 12 12 12 12 12 12 13 13 12 12 12 11 11 11 12 9 8 9 9 7 6 7 7 7 8 7 7 8 7 7 7 8 8 8 8 8 8 8 7 7 6 6 6 6 6 6 6 7 6 6 5 4 3 2 1 1 1 2 3 4 3 4 5 5 7 8 7 3 8 8
5 8 6 8 11 12 12 12 12 11 12 12 13 13 13 13 12 12 12 12 12 12 12 12 11 10 10 9 10 10 10 7 7 7 6 6 7 7 7 7 7 7 7 7 6 6 7 6 6 8 7 7 7 7 6 6 6 7 6 6 6 6 6 6 5 5 4 4 4 2 3 1 3 2 4 5 5 5 6 8 9 9 5 8 9
6 6 5 9 12 11 11 11 11 11 11 12 13 13 12 12 11 12 12 11 11 12 12 11 10 10 10 9 9 10 10 8 10 10 8 6 6 7 6 6 6 7 7 6 7 7 7 6 7 7 6 7 7 7 7 7 7 7 8 8 7 7 6 6 6 5 6 5 6 5 3 4 2 4 4 5 6 6 6 7 9 9 8 7 7
6 4 4 5 8 10 11 11 11 11 11 12 12 12 12 11 11 11 12 11 12 12 11 11 10 10 10 9 9 9 10 10 8 8 11 9 7 6 6 6 6 7 6 6 6 6 7 7 6 6 7 7 7 7 7 7 8 8 8 9 9 8 7 7 7 8 8 8 8 6 5 3 6 2 4 6 7 6 6 7 6 7 7 7 5
7 5 4 5 6 9 11 11 11 12 12 12 12 12 11 11 11 11 11 11 11 11 11 11 11 10 10 10 10 9 9 9 8 7 4 2 6 7 7 6 7 7 6 6 6 5 5 6 7 7 7 7 7 6 6 7 8 8 8 9 9 9 9 9 9 10 10 10 10 8 3 6 5 1 5 6 8 8 7 6 6 6 5 6 5
6 4 4 5 6 8 11 11 11 12 12 12 11 12 11 11 11 11 11 11 10 11 11 11 11 11 11 10 10 10 10 10 9 8 7 7 6 6 7 7 6 6 6 6 6 5 6 5 6 6 6 6 7 7 7 7 8 8 8 8 9 10 10 11 11 12 12 9 6 3 4 6 4 0 7 7 8 8 8 7 6 6 5 5 4
6 4 5 6 6 8 10 11 11 11 12 11 11 11 11 11 11 11 11 11 11 11 11 11 11 11 11 11 10 10 10 9 9 8 8 8 8 8 8 7 7 6 6 6 6 6 6 7 7 7 7 6 6 7 7 8 8 8 8 9 9 10 11 11 12 13 14 6 10 3 3 5 2 3 5 6 8 9 8 8 7 6 6 5 5
6 6 6 7 8 10 10 11 11 11 11 11 11 11 11 10 10 11 10 10 10 11 11 11 11 11 11 11 11 10 10 9 9 8 9 9 8 9 9 9 8 8 8 8 7 7 6 7 6 6 6 7 7 7 7 7 8 8 9 9 10 10 12 12 12 15 8 9 6 2 5 4 3 2 6 8 8 8 8 7 6 7 6 5 4
6 6 6 7 7 10 10 10 11 10 10 10 11 11 10 10 10 10 10 10 10 11 10 11 11 10 11 10 11 10 10 9 9 9 9 9 9 9 9 9 9 9 8 8 8 7 8 7 7 7 6 6 6 6 6 6 8 8 8 9 10 11 12 13 14 11 8 6 4 4 1 3 3 5 6 8 8 8 5 5 4 5 5 6 6
6 4 6 8 9 9 9 10 10 10 10 10 10 10 10 9 9 10 9 10 10 10 11 10 10 10 10 10 10 10 9 9 9 9 9 9 9 9 9 8 8 8 8 8 8 7 7 6 6 6 6 6 5 6 6 7 7 8 8 9 10 11 11 12 14 7 8 6 4 4 7 5 5 4 9 9 8 7 6 6 5 5 6 5 5
5 5 5 7 9 10 9 9 9 10 11 10 10 9 9 9 9 9 10 10 10 10 10 10 10 10 10 9 9 9 8 9 8 8 9 9 9 8 8 8 7 7 7 7 7 7 6 5 5 6 5 5 5 6 6 7 7 7 8 9 9 10 11 12 9 11 5 3 5 2 1 3 3 2 9 9 7 6 6 5 5 5 4 4 4
4 4 3 6 7 10 9 9 9 10 10 9 9 8 9 9 9 10 10 10 10 9 9 9 9 9 9 8 8 8 8 8 8 8 8 8 8 8 7 7 7 6 6 6 6 5 6 6 6 5 5 5 5 5 6 6 7 8 8 9 10 10 10 12 6 9 5 2 1 3 1 2 4 7 8 7 6 5 4 3 3 3 3 3 2
6 3 3 4 5 9 10 10 11 10 9 9 9 9 8 9 9 9 10 10 9 9 8 8 8 7 7 7 7 8 8 8 8 8 8 8 8 7 7 7 7 6 6 6 6 5 5 5 5 5 5 5 5 5 6 7 7 8 8 9 9 10 11 8 9 9 2 1 1 2 1 7 5 5 4 5 4 3 2 2 2 2 3 2 2
4 4 4 4 5 6 11 11 10 10 9 9 9 9 9 9 9 10 10 9 8 7 7 7 7 7 7 8 8 8 8 8 8 8 8 8 8 7 7 7 6 6 6 6 5 5 6 6 5 5 5 5 5 6 6 7 7 8 8 9 9 9 9 6 7 5 3 2 2 4 6 3 4 5 3 2 3 2 1 2 3 2 2 2 1
5 4 3 2 5 5 6 10 11 10 9 9 8 9 9 9 9 9 8 8 7 7 7 6 6 6 8 9 8 8 7 7 8 8 8 8 8 8 7 7 7 6 6 6 6 6 5 6 6 5 5 5 5 6 6 7 8 7 8 8 9 9 9 8 3 2 1 3 3 4 4 2 4 2 1 2 2 2 2 3 3 2 2 5 6
2 4 4 5 5 5 5 6 9 11 10 9 9 9 8 8 8 8 7 7 7 7 8 7 7 8 8 7 7 6 7 7 7 7 7 7 7 7 7 7 6 7 6 6 5 5 6 6 7 7 6 5 6 6 6 7 8 9 9 9 8 8 8 6 2 2 1 1 3 3 3 3 4 2 1 1 1 1 1 2 2 1 2 4 5
6 3 3 3 4 4 5 4 3 6 7 8 9 9 9 9 8 8 7 6 6 7 7 6 7 8 9 8 8 8 7 8 8 7 7 7 7 8 7 7 7 6 6 6 5 5 5 5 6 6 7 6 6 6 7 7 8 10 10 9 8 6 7 3 3 2 1 2 2 1 1 4 1 1 2 2 2 2 3 3 3 2 2 2 3
12 9 4 6 8 7 5 3 3 4 5 4 4 6 8 8 8 7 6 5 5 6 6 5 6 8 7 8 5 5 6 5 7 7 8 8 7 7 7 6 6 5 5 4 4 4 4 4 5 6 6 6 7 7 7 8 9 10 10 10 8 3 1 1 2 0 2 2 2 2 2 1 1 1 1 1 1 1 1 2 2 3 2 1 2
5 7 10 9 5 3 2 3 4 4 3 3 4 5 5 6 6 6 6 5 5 5 5 4 6 9 7 5 5 4 5 5 8 5 6 6 5 4 4 4 3 4 5 5 5 5 5 6 6 7 7 6 6 7 8 9 10 10 10 11 9 4 1 3 1 1 1 3 2 1 1 1 1 1 0 0 1 2 1 1 1 1 2 1 0
3 7 8 9 9 4 2 3 4 2 3 3 3 3 3 3 4 4 3 4 5 6 4 4 5 6 6 5 4 2 1 1 1 1 5 2 2 1 2 2 3 3 4 6 8 8 8 8 8 9 8 6 6 8 10 11 11 11 11 10 9 1 1 3 1 1 2 3 1 2 2 2 2 1 1 1 1 2 1 1 2 3 3 2 1
5 6 6 6 10 7 1 3 4 4 3 2 3 3 2 3 0 3 3 6 4 6 3 4 5 2 3 1 1 1 1 1 1 0 2 2 1 1 2 3 3 4 4 6 8 10 10 10 10 10 10 8 8 5 5 10 13 12 11 10 4 4 4 5 3 2 2 3 2 1 4 5 5 5 4 3 3 2 2 1 2 2 4 3 2
4 4 5 6 6 7 6 6 4 2 3 3 1 2 2 2 4 4 1 7 4 6 3 3 3 3 5 5 3 2 3 3 2 4 2 3 2 5 5 6 6 7 12 12 8 11 11 13 13 12 9 11 6 6 4 3 4 11 10 7 3 3 6 4 4 3 2 3 2 2 3 5 7 7 6 5 5 3 2 1 1 1 3 4 4
3 3 5 6 6 6 6 5 5 3 3 2 0 1 4 3 3 3 2 3 3 4 3 5 4 3 2 3 1 2 1 2 1 6 8 4 4 8 8 6 8 7 18 9 7 7 10 12 12 13 8 5 3 2 1 1 2 3 6 6 6 3 10 5 8 4 5 3 1 3 5 8 9 9 9 7 5 4 3 1 1 1 3 4 4
2 4 5 5 6 4 3 5 5 4 2 3 2 2 1 3 2 3 3 3 4 4 4 5 6 6 4 2 1 1 2 2 3 4 3 3 6 7 3 4 7 6 11 6 7 8 9 8 6 5 4 6 3 2 2 3 1 4 3 1 1 1 1 8 6 6 4 2 3 9 11 9 10 10 9 7 5 3 2 1 1 1 2 3 3
3 4 6 4 5 3 1 4 6 1 1 2 2 4 5 4 5 6 5 5 4 3 4 5 5 6 6 6 5 4 3 2 2 3 4 5 7 7 6 6 6 6 7 5 6 7 7 6 6 6 6 6 6 5 4 4 5 5 4 7 3 4 4 6 6 5 4 4 4 10 12 11 9 8 7 5 4 2 2 2 2 2 2 2 2
4 5 5 5 4 4 7 5 4 0 3 3 3 4 3 4 4 5 6 5 5 5 5 4 7 8 7 7 7 7 6 6 7 6 6 5 6 6 6 5 5 6 6 6 6 6 6 6 5 6 6 6 7 7 5 5 5 6 4 5 4 4 4 5 4 5 6 4 5 12 13 11 10 10 8 6 4 3 1 2 3 2 2 2 3
6 6 5 5 4 8 6 1 3 2 2 4 4 5 5 6 7 6 5 5 5 5 4 6 7 8 7 7 7 6 6 6 6 5 6 6 5 5 5 5 5 5 5 5 5 5 5 5 5 7 7 8 8 7 7 6 6 4 4 3 5 5 1 2 1 7 4 5 5 10 11 10 8 9 10 10 10 6 4 3 2 4 5 4 4
7 7 5 5 7 6 6 5 5 5 4 5 7 6 4 5 5 5 5 6 4 4 6 7 7 6 7 7 6 6 6 6 6 5 5 6 5 5 5 5 5 5 4 4 5 4 5 5 5 5 6 5 5 5 7 8 6 6 5 5 5 5 4 2 3 2 8 5 5 7 11 10 7 7 8 9 10 10 8 7 4 3 2 4 3
5 6 6 6 8 7 8 7 5 4 4 4 4 5 4 4 5 6 5 5 6 4 5 5 7 7 6 7 6 6 5 6 5 4 6 6 5 5 5 5 5 4 4 5 5 5 5 5 5 5 6 5 4 5 5 5 5 5 5 4 4 6 7 2 4 3 8 5 5 4 11 10 10 8 8 8 9 9 9 9 9 9 9 9 10
6 7 6 7 6 7 8 7 5 4 4 4 3 4 3 5 7 6 5 4 5 5 5 4 7 6 5 5 6 5 5 4 5 4 6 5 5 5 5 4 4 5 6 4 5 5 5 6 7 5 6 5 4 5 5 4 5 5 6 5 5 4 6 4 4 6 3 5 5 4 4 11 11 9 9 10 9 9 9 9 9 8 8 8 8
7 7 6 7 8 8 7 7 4 4 5 6 6 6 4 8 7 5 4 5 5 4 4 4 6 6 6 5 5 5 5 4 5 5 6 5 4 5 5 5 5 5 6 5 6 6 7 8 9 7 8 5 4 5 4 5 5 7 7 7 5 4 5 5 5 3 3 3 6 4 3 4 9 10 9 10 9 10 10 10 8 8 7 8 8
7 8 7 7 7 7 6 5 6 6 7 8 7 7 7 8 6 5 4 5 4 5 5 4 4 7 7 5 5 5 5 5 5 5 6 5 5 5 5 5 6 6 6 7 7 6 6 7 8 7 8 7 6 5 4 4 5 5 6 6 6 8 8 5 6 4 2 2 6 3 3 5 3 8 9 8 8 8 9 9 8 6 6 6 7
6 6 7 6 5 4 4 3 4 6 7 8 7 6 6 6 5 5 5 3 5 4 5 5 5 6 7 6 5 6 4 4 4 4 5 4 5 6 6 5 5 5 5 7 6 7 6 7 7 6 8 6 7 8 7 5 3 2 3 5 4 6 7 5 6 6 2 3 3 4 5 3 3 3 4 6 8 6 8 8 7 6 4 5 6
6 7 8 8 7 6 4 5 7 7 7 8 8 7 7 6 5 5 6 5 5 4 4 5 6 5 7 5 5 5 4 4 4 5 5 5 5 5 6 6 5 4 4 5 6 6 7 7 6 5 6 4 6 6 8 9 7 3 0 0 3 4 6 5 6 6 4 2 3 2 2 0 4 3 3 3 3 5 7 8 7 5 4 3 4
7 7 7 7 8 6 5 5 7 7 6 7 6 4 4 5 4 5 5 5 4 5 5 5 6 5 5 5 5 5 4 4 6 6 5 4 4 3 4 4 5 5 5 6 6 6 6 7 7 7 6 7 4 4 6 7 9 6 5 3 3 3 4 3 4 6 6 4 5 2 5 1 1 3 4 0 1 4 6 7 6 6 4 3 2
6 8 5 7 8 6 6 7 7 9 7 7 5 5 4 2 2 6 7 5 5 4 5 5 5 5 5 5 5 5 5 5 5 5 5 5 4 3 4 4 5 6 6 6 6 6 4 7 8 7 9 7 6 7 5 7 8 6 6 6 4 3 3 1 1 3 7 2 4 3 2 4 1 3 3 4 1 1 5 5 6 8 7 5 3
5 5 7 7 6 6 6 7 6 7 4 3 3 2 3 6 5 5 6 6 5 5 5 5 5 5 5 4 5 5 5 6 5 4 3 4 5 6 6 6 4 5 5 4 4 5 4 6 9 7 8 7 7 7 6 7 7 7 6 9 7 5 2 1 2 5 5 2 3 2 1 5 2 2 2 2 3 0 1 1 6 9 10 8 7
3 5 5 6 7 6 5 4 5 3 3 2 2 2 1 4 5 5 5 5 5 5 6 5 4 5 5 5 4 3 4 3 3 4 5 6 5 5 5 6 5 5 6 5 5 5 6 8 8 9 8 7 7 6 9 8 10 7 9 8 8 10 6 1 3 5 2 5 5 5 3 3 1 4 2 2 2 1 2 3 4 2 6 10 7
4 4 7 7 7 6 5 4 4 2 2 2 1 2 3 3 4 5 5 5 5 5 5 5 4 3 6 5 6 5 5 5 6 7 6 5 4 3 4 6 6 6 6 7 7 6 8 9 8 9 8 7 8 6 8 8 8 7 10 8 9 8 10 6 2 7 8 4 6 2 3 3 5 5 2 2 1 2 4 3 2 4 4 5 5
3 5 6 5 5 5 5 5 4 4 5 3 4 5 3 4 5 5 5 4 5 5 6 4 3 3 4 5 3 4 4 5 6 5 5 4 4 4 5 7 6 6 6 7 7 6 8 7 7 7 8 8 7 7 9 8 7 8 8 9 8 9 8 10 12 10 10 7 6 7 6 5 4 3 3 3 1 2 1 2 6 7 6 7 8
4 7 6 6 7 7 5 5 4 3 2 5 6 7 7 7 5 5 5 6 6 5 4 2 2 5 4 3 0 0 2 6 5 5 6 6 6 7 5 5 5 5 6 7 8 6 9 9 7 6 7 8 6 9 8 9 6 8 8 9 8 9 5 10 11 12 11 6 8 8 8 9 9 9 8 5 5 7 6 7 7 5 6 7 7
5 9 7 5 5 4 5 2 3 5 8 7 6 5 4 4 4 5 6 5 4 3 2 3 6 6 4 4 7 8 8 6 5 4 7 5 5 5 6 3 6 6 6 6 8 8 8 9 9 7 7 7 7 8 7 9 7 6 5 6 7 10 9 9 10 12 11 11 9 8 8 9 10 8 9 9 9 7 10 8 6 5 5 5 6
6 7 7 5 5 4 3 3 4 6 5 6 6 4 5 4 4 3 4 4 4 4 3 6 4 4 4 3 3 3 5 6 6 7 7 5 4 6 6 5 5 5 5 6 8 9 8 9 9 9 7 7 8 7 9 9 8 7 6 6 6 5 6 7 11 10 8 12 11 10 8 8 9 12 9 9 7 7 8 7 5 5 6 7 8
6 7 7 6 5 6 5 5 5 6 6 5 4 3 3 3 2 3 4 4 1 3 6 4 3 3 2 3 5 5 4 5 5 8 8 6 4 5 6 6 4 5 6 6 7 8 7 7 9 8 8 7 7 6 7 10 11 6 6 4 4 5 4 8 9 5 9 8 10 10 9 10 11 10 8 7 7 8 7 7 5 7 8 7 4
6 6 9 8 5 6 7 6 5 4 5 5 4 2 2 2 4 2 6 6 5 4 3 3 5 4 3 2 3 3 6 8 7 6 7 6 5 5 6 6 5 5 6 5 5 6 6 8 8 7 9 8 7 6 7 7 9 7 9 5 3 3 6 7 7 6 5 5 8 9 9 11 11 11 8 8 11 9 7 6 7 8 7 4 7
7 8 7 6 8 9 6 7 5 4 4 4 4 3 2 5 5 6 7 4 4 4 2 2 3 3 2 3 4 5 7 6 6 5 6 6 6 5 6 6 7 6 6 6 5 6 6 8 7 7 8 8 7 7 7 7 7 6 9 7 7 5 7 6 6 7 9 4 4 8 9 11 11 10 10 11 11 9 7 7 8 7 4 7 4
8 9 6 6 8 7 8 7 5 4 4 4 5 5 7 7 7 6 5 5 3 3 3 2 2 2 3 2 3 5 5 4 4 5 5 5 5 5 6 6 6 7 6 7 6 6 6 6 7 7 7 6 7 6 6 7 7 6 8 7 7 7 9 7 7 6 6 10 9 4 5 9 9 7 11 12 10 8 10 9 8 4 5 5 3
8 7 7 8 7 6 7 7 6 4 3 7 6 5 5 4 4 4 5 4 4 3 2 3 2 0 2 2 5 3 4 3 4 5 5 5 5 6 6 7 6 7 6 6 6 7 6 7 7 7 7 6 6 6 6 6 7 6 7 6 7 5 7 6 7 6 6 8 9 10 10 7 5 6 8 8 9 10 10 8 4 7 3 5 6
7 7 9 8 7 7 7 7 6 5 6 6 5 6 6 5 4 3 4 4 4 4 4 3 3 2 3 3 4 3 2 4 3 3 3 6 6 6 7 8 7 7 7 7 7 8 6 7 7 6 6 5 5 6 6 5 6 6 6 6 6 5 5 5 6 7 6 6 8 11 11 13 11 8 6 7 9 10 10 7 9 6 7 7 5
6 8 7 9 6 6 7 7 5 5 6 5 5 5 4 4 4 4 5 5 5 4 4 3 2 2 3 4 3 1 3 4 2 2 3 6 6 6 6 7 6 6 6 6 6 7 6 6 6 6 6 6 5 5 5 5 5 5 7 6 7 5 6 6 6 6 6 6 7 8 9 8 10 11 9 11 10 10 9 8 7 7 8 8 6
Wind_Direction
29 77 66 57 64 68 71 75 77 79 77 75 73 71 71 69 69 66 66 66 65 64 60 57 57 56 57 56 57 58 54 48 45 35 27 43 53 56 50 44 49 55 58 59 63 66 62 57 52 50 47 47 45 39 40 39 41 38 40 41 43 36 42 33 44 52 53 56 75 121 78 119 81 92 108 101 106 79 71 26 14 331 105 104 104
99 67 69 67 69 74 73 72 71 72 72 72 71 69 69 67 67 70 69 66 65 65 63 63 56 58 58 54 62 64 61 49 43 34 19 17 48 53 49 49 43 45 49 58 55 59 65 60 61 58 52 51 45 43 40 37 32 32 28 29 29 29 18 18 20 26 19 16 32 309 164 122 130 133 122 123 102 89 59 46 34 72 87 111 109
129 103 93 81 77 76 77 74 71 72 72 73 70 69 67 66 65 67 68 68 66 65 68 65 63 66 66 63 62 64 64 44 42 43 12 19 34 40 43 44 42 39 41 40 59 43 46 51 53 52 55 52 48 45 37 33 31 30 25 24 24 20 18 1 5 356 337 324 309 308 279 297 161 153 149 138 113 97 76 63 62 82 100 117 105
96 95 102 89 85 84 81 79 78 77 77 75 75 73 72 70 69 69 66 68 69 67 67 67 67 66 66 62 64 72 77 62 17 4 12 14 45 38 31 27 36 39 40 36 39 43 35 36 36 36 38 39 36 30 25 20 19 16 13 10 7 6 5 357 338 332 315 305 294 299 13 3 264 155 155 143 120 104 91 83 81 91 95 93 110
78 44 67 85 86 85 85 87 83 80 80 78 79 79 77 75 73 71 70 68 65 65 64 64 65 63 62 60 59 63 67 86 90 10 354 344 29 40 35 24 27 32 28 25 31 31 30 19 30 31 24 28 23 25 14 8 6 3 3 358 351 350 350 340 329 321 319 314 313 322 64 58 314 147 173 159 133 124 105 96 94 94 96 91 102
81 75 87 94 81 79 81 83 80 79 77 78 78 78 79 78 76 73 71 69 70 70 68 68 65 61 59 58 54 55 60 65 78 106 110 28 28 29 31 28 26 19 25 25 22 25 24 22 19 6 18 15 16 15 10 3 356 357 354 354 346 344 341 334 326 322 321 323 340 33 339 96 98 317 282 177 140 130 124 117 113 104 100 92 102
88 84 80 82 80 77 83 84 82 80 79 79 79 78 78 77 74 73 73 69 68 67 66 65 63 61 58 56 53 51 53 55 63 70 66 56 44 34 34 34 31 23 21 27 27 16 11 14 5 3 360 0 5 360 357 356 356 350 350 350 347 341 337 334 331 328 326 332 71 58 345 42 89 7 207 183 151 144 137 133 133 124 111 103 103
86 87 84 82 82 81 81 80 83 83 82 83 83 79 77 76 74 75 71 70 66 64 64 60 59 58 56 53 51 51 50 52 59 61 62 57 50 44 40 37 37 31 26 22 29 30 19 13 11 5 357 344 357 357 351 352 350 350 348 348 345 338 335 332 333 329 328 350 54 95 31 7 142 150 239 178 162 148 145 144 147 142 135 123 122
83 79 88 87 83 85 81 80 81 85 86 82 82 82 77 74 74 71 71 70 67 65 61 59 56 55 53 51 51 50 48 49 50 53 57 55 52 46 41 38 35 33 29 28 22 21 20 21 8 5 2 354 2 2 358 350 347 343 343 343 341 340 334 337 332 331 333 54 98 248 146 201 240 145 231 193 162 150 150 145 140 148 134 125 121
97 93 92 85 89 83 83 82 81 84 84 82 77 78 77 75 75 74 74 72 69 67 63 61 57 55 53 51 50 48 47 49 50 49 51 53 50 47 40 35 32 29 29 27 22 20 21 17 19 10 6 7 0 358 355 352 349 344 340 341 340 338 336 337 339 333 37 62 42 304 259 169 175 221 194 182 163 150 126 121 94 101 129 121 113
79 86 98 93 91 90 85 84 83 83 84 81 79 78 78 81 77 77 73 70 68 65 65 61 59 57 54 52 50 49 49 47 46 48 49 48 50 48 43 38 33 29 24 23 23 18 14 13 7 11 358 353 358 349 347 348 344 344 340 339 337 337 336 336 342 31 39 5 58 4 353 335 221 220 178 174 165 146 134 123 128 122 123 120 117
93 77 80 100 97 95 92 91 89 81 78 79 81 80 82 80 76 72 67 63 63 63 60 60 60 57 54 53 51 50 51 50 48 48 49 47 45 46 45 41 37 32 29 21 14 15 5 1 2 355 344 357 345 346 344 339 338 334 337 334 333 331 337 345 337 49 19 349 37 44 82 305 292 189 180 173 156 144 140 142 142 134 131 116 113
66 66 59 99 103 98 94 90 83 80 78 82 86 85 79 74 74 67 62 61 58 57 58 60 60 58 56 53 54 54 53 53 54 53 49 47 44 43 42 40 34 31 24 18 12 5 4 351 347 347 342 332 339 335 333 329 327 328 330 329 329 332 339 348 0 73 24 46 74 75 246 316 274 198 184 167 151 137 132 134 135 118 102 109 98
118 105 116 98 103 106 100 88 82 80 82 84 82 80 74 74 71 65 65 62 60 57 58 62 62 60 62 56 56 54 49 51 53 54 53 48 46 42 38 34 31 23 21 14 5 354 351 343 339 335 328 320 316 323 320 319 320 322 322 324 325 331 343 342 40 101 139 306 96 250 173 221 224 210 192 162 146 129 130 145 115 96 108 110 129
117 97 88 86 101 103 100 92 87 88 88 81 79 76 75 71 67 68 64 65 63 59 61 62 62 62 62 59 57 55 50 50 54 53 50 47 42 34 35 28 25 17 11 7 2 339 348 338 335 324 324 320 315 311 310 309 308 312 314 316 321 327 343 355 26 133 153 156 200 239 206 236 193 203 186 167 137 112 126 70 64 52 45 70 126
129 120 108 86 106 105 95 97 98 99 99 94 87 81 79 76 70 72 74 72 72 71 67 68 69 68 65 62 60 58 59 54 53 51 51 45 37 37 26 23 17 4 5 355 351 341 336 332 329 322 317 308 310 309 301 299 299 301 304 305 312 321 350 6 17 125 166 179 230 227 237 147 203 212 184 155 97 83 82 72 69 61 33 47 37
120 135 128 128 105 109 105 97 104 108 102 100 90 87 85 81 81 78 84 84 80 77 73 70 75 74 75 80 69 68 69 64 59 52 50 48 43 38 36 24 19 17 14 4 357 344 339 330 326 321 314 309 297 290 296 298 295 289 291 295 297 313 4 3 57 353 297 323 186 224 237 139 151 177 169 131 134 187 166 104 99 95 57 47 47
131 122 128 135 147 127 100 105 90 100 107 97 92 87 83 87 83 83 85 89 87 83 81 81 84 85 85 78 71 64 53 51 55 53 49 51 54 46 37 29 20 20 17 10 358 354 346 330 315 309 295 290 287 290 287 287 285 285 283 289 292 312 8 326 74 322 304 269 246 284 343 56 146 209 164 158 177 209 211 192 141 127 100 85 62
143 139 123 77 43 15 51 49 34 63 66 76 103 91 91 94 101 107 103 108 105 100 91 100 100 90 75 74 68 51 35 34 35 49 55 47 46 54 37 29 20 14 11 4 346 335 328 304 289 276 270 268 277 286 283 278 277 281 279 280 286 319 258 59 112 249 313 293 294 343 56 86 186 193 161 197 216 217 234 203 183 147 134 131 143
74 111 124 115 105 109 99 82 48 23 46 68 95 101 95 95 106 115 112 101 105 88 85 72 75 78 72 50 44 27 26 27 16 19 52 68 61 57 45 20 5 350 344 335 315 304 288 289 277 272 268 269 274 273 273 269 269 269 277 279 285 309 143 67 313 64 238 267 292 258 45 329 290 206 280 306 303 275 237 197 215 220 182 178 244
39 70 84 113 103 63 56 115 115 72 30 27 342 91 104 96 43 67 84 99 70 90 81 53 48 67 61 33 28 13 5 31 6 44 333 45 94 49 33 41 314 310 311 305 302 292 286 283 282 274 271 262 258 255 252 259 265 265 268 277 277 341 99 113 219 176 242 260 266 270 331 291 304 265 298 315 302 318 325 168 192 201 185 184 202
12 55 47 79 120 123 102 73 73 61 60 357 10 349 56 90 87 335 57 41 8 47 52 45 46 25 86 160 15 57 301 349 228 185 216 210 135 266 246 252 288 275 272 286 285 282 281 276 278 274 274 265 233 238 238 242 244 253 260 261 266 148 188 149 177 166 241 255 247 279 315 307 309 309 311 322 332 348 341 277 239 211 207 201 199
55 56 64 52 72 102 112 86 69 58 46 14 60 22 324 202 165 183 129 124 110 77 41 54 51 43 43 39 21 350 32 307 16 315 111 283 307 203 248 251 244 265 352 323 262 273 267 267 268 271 267 276 239 231 237 250 224 243 244 243 229 198 162 150 174 179 218 243 267 263 303 308 310 318 334 339 337 339 337 292 284 282 232 214 206
67 66 80 63 48 61 78 83 83 67 6 321 285 157 190 211 150 152 160 125 142 106 94 62 71 67 57 66 330 331 143 251 264 359 32 23 222 235 230 253 258 254 9 342 360 266 285 270 263 274 287 250 251 299 301 150 307 218 199 222 204 209 140 187 166 181 206 194 226 0 11 345 332 334 337 338 331 320 322 326 340 303 246 223 225
89 89 84 68 64 66 71 88 90 60 85 287 238 162 77 74 61 57 77 83 75 70 67 55 36 24 44 52 78 269 55 30 25 356 22 358 6 3 18 23 2 17 14 353 3 345 345 350 353 319 327 333 345 283 30 324 203 333 296 234 129 326 119 159 178 166 149 71 35 26 31 14 351 346 348 341 324 322 314 315 302 328 252 236 253
113 91 93 104 99 102 126 80 64 237 173 197 92 53 45 54 35 25 28 23 37 70 92 79 47 38 26 19 6 15 29 22 19 37 19 16 25 9 9 18 9 12 8 352 3 345 344 349 356 339 336 323 347 336 47 331 16 324 330 349 65 351 46 332 128 130 102 77 62 51 48 31 9 6 2 353 337 321 331 300 319 303 249 267 257
111 100 88 88 95 104 57 53 90 53 100 87 66 63 58 46 61 48 32 21 23 20 30 57 67 39 27 18 13 7 21 10 8 22 30 22 27 16 2 18 10 12 3 356 1 343 340 346 344 343 331 343 343 339 3 5 347 314 3 336 353 28 37 325 94 116 107 101 87 71 62 48 34 29 30 33 28 9 11 345 332 304 305 300 305
103 93 86 93 94 82 110 82 91 79 41 61 71 75 51 45 32 37 34 27 36 24 29 34 62 48 24 23 14 15 20 13 5 24 32 22 18 28 2 14 15 13 356 2 355 334 348 343 344 346 351 353 333 344 357 351 328 332 327 357 360 351 47 314 331 120 125 128 109 84 82 77 57 37 41 44 43 50 54 26 19 346 333 321 305
89 98 113 110 82 82 78 83 67 52 45 48 41 35 53 70 61 38 30 22 14 53 29 52 38 44 32 22 18 13 23 12 2 12 40 25 6 27 9 17 17 9 354 353 354 343 346 346 348 345 12 327 329 356 1 344 336 339 323 22 355 337 339 337 303 105 128 122 102 106 106 107 87 76 62 48 48 52 49 53 41 16 354 337 328
79 110 115 92 103 100 82 72 63 56 61 67 79 73 40 39 60 51 31 28 4 35 44 59 63 36 33 22 23 14 27 17 353 355 41 27 14 19 17 15 18 1 345 10 355 1 357 348 354 16 342 337 345 11 358 327 327 322 5 342 25 346 319 6 326 59 114 92 108 122 129 122 121 113 90 76 74 61 52 54 48 49 38 36 31
84 70 63 87 88 90 89 78 67 65 59 76 74 72 78 62 55 47 32 32 23 14 51 34 76 61 39 25 21 23 20 23 352 347 55 33 14 26 17 11 22 6 354 17 5 1 0 359 357 3 340 336 7 14 327 358 341 337 8 8 0 334 312 339 346 14 59 112 132 138 144 131 130 124 117 109 98 83 77 57 55 44 42 37 36
89 88 90 82 73 71 73 71 60 45 48 47 44 35 35 63 55 43 30 34 37 20 50 28 69 69 50 29 23 31 17 16 0 4 65 38 24 27 27 15 15 18 357 0 23 8 9 6 354 1 341 344 2 5 352 5 337 19 348 6 320 339 341 341 12 8 18 81 121 145 145 139 135 129 125 119 108 103 88 79 64 52 48 44 42
87 88 98 93 92 83 75 79 63 57 53 47 47 35 27 51 52 43 15 54 29 28 17 55 61 83 57 29 32 34 29 8 2 9 63 47 32 29 27 29 15 12 7 0 32 12 11 13 357 359 345 359 356 6 9 16 348 30 353 343 4 359 338 352 359 334 73 16 35 37 116 156 136 124 126 120 113 111 106 97 80 73 51 52 46
98 96 84 85 97 111 94 78 90 74 65 59 46 43 21 62 51 41 1 49 56 44 21 18 36 72 60 37 39 31 36 15 2 18 53 58 46 29 28 21 23 13 16 12 24 16 13 10 3 0 348 357 6 1 356 0 338 48 26 330 38 349 332 359 342 330 38 16 86 58 13 343 115 135 141 127 129 129 119 113 105 80 68 53 56
105 94 89 86 73 74 80 55 55 62 65 65 54 50 38 39 48 50 10 21 61 49 44 37 32 54 71 37 40 35 35 19 17 31 41 49 49 45 34 18 11 7 22 25 21 27 8 3 355 358 346 350 8 13 2 348 335 358 228 212 34 21 330 347 331 335 357 10 49 43 155 43 89 60 333 139 140 152 150 130 116 112 93 72 61
95 105 105 93 85 81 80 77 68 63 56 70 75 47 68 66 61 69 49 18 36 54 64 46 50 35 64 66 38 49 23 36 35 30 40 44 56 55 50 40 14 8 8 23 27 18 9 0 349 346 342 335 12 10 23 348 331 348 353 353 68 63 320 344 328 343 333 328 89 348 350 95 114 169 201 43 79 174 173 132 146 149 134 132 131
61 75 77 99 100 90 73 72 73 60 45 42 57 82 66 77 91 92 72 44 26 48 53 58 60 66 36 58 57 46 36 27 45 42 42 31 25 37 43 47 37 20 16 23 23 9 7 5 354 348 345 342 4 357 42 356 335 349 348 355 354 8 277 267 309 310 297 328 2 32 352 302 153 333 115 88 302 224 172 141 190 171 166 168 194
55 78 87 92 85 81 70 65 59 65 64 62 57 75 109 75 45 61 82 63 38 47 41 48 63 56 62 47 61 64 59 44 32 33 53 59 40 30 24 26 26 23 19 16 20 9 1 10 5 345 349 355 354 353 16 360 349 338 360 344 327 292 307 295 356 271 273 283 309 153 72 293 353 11 132 153 205 267 91 245 251 186 172 192 199
110 118 117 103 90 91 88 72 77 88 87 108 164 77 241 114 88 76 68 68 55 49 54 37 41 68 66 63 51 62 79 76 59 35 33 43 42 35 33 20 12 14 13 14 7 16 15 20 3 356 350 4 349 348 22 0 338 344 355 333 329 317 253 81 298 289 283 25 345 311 74 320 237 253 184 213 155 134 285 267 239 192 186 189 201
82 91 87 86 95 79 83 87 55 69 167 47 34 142 90 31 103 105 87 95 86 62 59 56 25 60 93 93 85 58 45 52 45 41 39 33 28 30 37 28 22 14 16 14 8 16 23 21 2 358 349 1 339 28 16 358 328 4 343 330 320 325 359 320 4 10 359 360 325 320 16 290 278 255 281 87 7 69 283 313 348 347 44 178 238
115 84 86 98 96 106 93 73 90 35 18 38 48 25 25 68 41 50 85 80 87 87 78 68 64 58 76 76 78 120 117 89 71 65 41 29 17 17 36 35 23 13 17 17 2 15 24 25 2 355 358 358 342 31 22 354 351 359 338 337 327 346 343 19 17 10 350 342 351 342 347 329 334 18 8 7 27 326 311 48 18 30 19 18 6
69 88 79 74 78 84 96 87 61 61 60 86 61 37 27 22 33 63 52 42 39 56 70 102 91 47 39 40 146 183 103 110 106 83 64 33 29 17 4 51 30 13 21 16 358 20 28 25 9 356 9 1 346 15 31 6 12 3 347 341 334 339 337 38 10 359 343 350 1 349 359 356 348 348 349 5 11 18 4 29 29 35 29 16 7
106 98 96 92 106 99 80 107 117 74 43 41 58 58 54 42 43 57 90 79 70 67 87 75 66 57 17 19 28 32 17 41 59 64 60 45 39 19 357 25 45 25 20 10 7 13 31 26 14 4 10 8 353 7 15 28 354 3 353 335 357 336 348 6 2 349 338 3 346 355 360 350 341 1 3 3 8 1 22 11 6 43 26 10 343
127 115 109 107 95 108 102 66 91 94 92 81 78 67 68 69 61 31 85 93 125 140 138 82 86 92 86 61 61 52 44 40 31 50 61 43 43 33 5 8 51 43 22 18 18 10 27 24 18 5 20 12 3 359 3 20 3 357 10 357 329 339 344 1 342 328 348 351 348 353 354 340 355 8 359 352 344 27 7 356 360 22 9 346 327
111 131 146 140 99 96 105 98 69 84 85 89 102 117 121 111 75 94 95 105 115 81 68 74 86 85 83 74 65 29 34 49 37 42 33 29 21 52 18 0 35 53 39 32 28 10 27 29 20 10 8 24 359 2 356 16 360 12 26 345 342 3 356 326 338 307 10 331 353 348 345 347 6 358 346 336 357 9 356 343 357 360 346 327 318
111 65 74 85 140 130 111 105 94 86 102 112 104 90 114 156 141 118 67 42 41 51 81 78 66 53 58 31 44 79 55 32 21 49 46 12 7 48 31 7 5 44 52 45 38 18 20 32 23 21 3 19 5 6 358 13 350 11 13 14 345 317 316 334 342 329 344 358 342 344 342 358 357 348 335 351 1 347 342 341 350 341 316 326 347
115 120 126 157 137 116 112 107 106 102 114 115 123 149 112 95 87 101 100 80 60 35 59 69 89 125 153 65 45 37 51 45 20 4 52 20 8 38 42 20 9 20 47 31 33 35 21 32 21 28 14 13 8 13 8 5 342 19 3 356 344 337 354 355 345 337 331 3 356 338 353 350 349 334 357 357 347 340 333 340 328 307 338 343 318
132 139 146 113 98 105 118 113 120 122 119 124 102 63 71 63 70 73 109 125 111 95 80 84 49 39 31 49 96 57 51 51 24 354 41 32 8 25 47 38 18 19 30 30 21 27 32 37 31 36 16 22 10 21 8 6 356 7 353 354 347 357 4 354 5 357 330 322 331 352 352 345 333 344 5 349 332 332 334 313 299 332 324 300 2
141 136 127 117 122 125 105 108 118 137 123 90 100 112 105 101 100 121 118 124 137 145 109 87 82 312 95 45 54 66 77 60 57 4 25 35 28 25 43 36 30 16 26 32 16 19 34 36 32 36 21 19 17 24 15 11 358 7 349 360 340 9 4 354 360 358 342 333 326 339 337 339 328 2 353 320 332 329 310 297 327 326 330 9 356
138 144 121 126 122 111 119 123 121 114 103 110 113 105 113 136 147 160 122 124 134 136 131 168 178 200 119 76 59 15 78 62 55 24 21 46 36 29 41 42 30 20 19 30 19 17 20 45 30 39 30 20 18 29 20 10 5 357 0 354 332 11 12 348 4 357 344 352 332 331 335 334 339 344 327 334 326 312 306 343 342 330 1 352 349
161 131 131 128 127 129 127 130 126 109 125 127 133 132 139 124 139 153 151 149 148 153 152 157 162 134 95 101 120 170 68 69 52 71 33 59 36 38 38 47 36 22 17 31 22 21 7 49 28 36 35 26 5 39 23 13 13 359 7 351 339 18 19 352 356 349 347 336 332 323 324 331 335 324 335 328 321 317 338 338 320 360 356 335 332